Location: *
(48.4333°N, 5.0333°W)
Time: 02:11:41
(UTC+00:00)

SJ-6B - Pass Details

Date: 20 June 2021
Orbit: 509 x 581 km, 97.6° (Epoch: 02 August)

Event Time Altitude Azimuth Distance (km) Brightness Sun altitude
Rises 21:24:05 0° 215° (SW) 2,778 6.3 -7.9°
Reaches altitude 10° 21:27:22 10° 244° (WSW) 1,876 5.7 -8.2°
Maximum altitude 21:29:13 13° 271° (W) 1,695 5.9 -8.4°
Drops below altitude 10° 21:31:05 10° 299° (WNW) 1,867 6.8 -8.6°
Sets 21:34:21 0° 328° (NNW) 2,754 8.7 -9.0°
